Glendive, MT

11:13 PM MST on February 20, 2017 (GMT -0700)
Dawson Community

Weather History for KGDV - September, 2014

Change the Weather History Date:

Saturday, September 27, 2014

  Actual Average Record
Temperature  
Mean Temperature 61 °F -  
Max Temperature 71 °F 64 °F 87 °F (2011)
Min Temperature 50 °F 37 °F 33 °F (1996)
Degree Days  
Heating Degree Days 4    
Growing Degree Days 11 (Base 50)    
Moisture  
Dew Point 44 °F    
Average Humidity 53    
Maximum Humidity 71    
Minimum Humidity 29    
Precipitation  
Precipitation 0.00 in - - ()
Sea Level Pressure  
Sea Level Pressure 30.07 in    
Wind  
Wind Speed 17 mph (North)    
Max Wind Speed 26 mph    
Max Gust Speed 33 mph    
Visibility 10 miles    
Events      
Averages and records for this station are not official NWS values.
T = Trace of Precipitation, MM = Missing Value Source: NWS Daily Summary

Daily Weather History Graph

Daily Weather History Graph

Search for Another Location

Airport or City:

Trip Planner

Search our weather history database for the weather conditions in past years. The results will help you decide how hot, cold, wet, or windy it might be!

Date:

Astronomy

Sep. 27, 2014 Rise Set
Actual Time 6:52 AM MDT 6:46 PM MDT
Civil Twilight 6:22 AM MDT 7:17 PM MDT
Nautical Twilight 5:46 AM MDT 7:52 PM MDT
Astronomical Twilight 5:10 AM MDT 8:28 PM MDT
Moon 10:23 AM MDT (9/27) 8:33 PM MDT (9/27)
Length of Visible Light 12h 54m
Length of Day
11h 53m
Waxing Crescent, 12% of the Moon is Illuminated
Sep 27
Waxing Crescent
Oct 1
First Quarter
Oct 8
Full
Oct 15
Last Quarter
Oct 23
New

Hourly Weather History & Observations

Time (MDT) Temp. Dew Point Humidity Pressure Visibility Wind Dir Wind Speed Gust Speed Precip Events Conditions
12:15 AM 64.4 °F 46.4 °F 52% 29.94 in 10.0 mi NW 16.1 mph - N/A   Clear
12:35 AM 62.6 °F 46.4 °F 55% 29.94 in 10.0 mi NNW 13.8 mph - N/A   Clear
12:55 AM 64.4 °F 46.4 °F 52% 29.95 in 10.0 mi NNW 15.0 mph - N/A   Clear
1:15 AM 64.4 °F 46.4 °F 52% 29.96 in 10.0 mi North 13.8 mph - N/A   Clear
1:35 AM 62.6 °F 46.4 °F 55% 29.96 in 10.0 mi North 11.5 mph - N/A   Clear
1:55 AM 62.6 °F 46.4 °F 55% 29.97 in 10.0 mi NNW 13.8 mph - N/A   Clear
2:15 AM 62.6 °F 46.4 °F 55% 29.97 in 10.0 mi NNW 13.8 mph - N/A   Clear
2:35 AM 62.6 °F 46.4 °F 55% 29.96 in 10.0 mi NNW 15.0 mph - N/A   Clear
2:55 AM 62.6 °F 46.4 °F 55% 29.96 in 10.0 mi North 13.8 mph - N/A   Clear
3:15 AM 60.8 °F 46.4 °F 59% 29.96 in 10.0 mi NNW 11.5 mph - N/A   Clear
3:35 AM 60.8 °F 46.4 °F 59% 29.97 in 10.0 mi NNW 16.1 mph - N/A   Clear
3:55 AM 60.8 °F 46.4 °F 59% 29.97 in 10.0 mi NNW 17.3 mph - N/A   Clear
4:15 AM 59.0 °F 46.4 °F 63% 29.97 in 10.0 mi NNW 17.3 mph - N/A   Clear
4:35 AM 59.0 °F 46.4 °F 63% 29.97 in 10.0 mi NNW 13.8 mph - N/A   Clear
4:55 AM 57.2 °F 46.4 °F 67% 29.98 in 10.0 mi North 15.0 mph - N/A   Clear
5:15 AM 59.0 °F 44.6 °F 59% 29.99 in 10.0 mi North 12.7 mph - N/A   Clear
5:35 AM 59.0 °F 44.6 °F 59% 30.00 in 10.0 mi NNW 10.4 mph - N/A   Clear
5:55 AM 57.2 °F 44.6 °F 63% 30.01 in 10.0 mi NNW 11.5 mph - N/A   Clear
6:15 AM 57.2 °F 44.6 °F 63% 30.01 in 10.0 mi NNW 11.5 mph - N/A   Clear
6:35 AM 55.4 °F 44.6 °F 67% 30.02 in 10.0 mi NNW 13.8 mph - N/A   Clear
6:55 AM 55.4 °F 44.6 °F 67% 30.02 in 10.0 mi NNW 15.0 mph - N/A   Clear
7:15 AM 55.4 °F 44.6 °F 67% 30.02 in 10.0 mi NNW 10.4 mph - N/A   Clear
7:35 AM 55.4 °F 44.6 °F 67% 30.03 in 10.0 mi NW 11.5 mph - N/A   Clear
7:55 AM 57.2 °F 44.6 °F 63% 30.04 in 10.0 mi NNW 12.7 mph - N/A   Clear
8:15 AM 57.2 °F 44.6 °F 63% 30.05 in 10.0 mi NNW 11.5 mph - N/A   Clear
8:35 AM 57.2 °F 44.6 °F 63% 30.06 in 10.0 mi NNW 11.5 mph - N/A   Clear
8:55 AM 60.8 °F 44.6 °F 55% 30.06 in 10.0 mi NNE 13.8 mph - N/A   Clear
9:15 AM 62.6 °F 46.4 °F 55% 30.06 in 10.0 mi NNE 17.3 mph - N/A   Clear
9:35 AM 62.6 °F 48.2 °F 59% 30.06 in 10.0 mi NNE 19.6 mph - N/A   Clear
9:55 AM 64.4 °F 48.2 °F 56% 30.06 in 10.0 mi North 19.6 mph - N/A   Clear
10:15 AM 64.4 °F 48.2 °F 56% 30.07 in 10.0 mi NNE 21.9 mph 27.6 mph N/A   Clear
10:35 AM 64.4 °F 48.2 °F 56% 30.06 in 10.0 mi NNE 19.6 mph 25.3 mph N/A   Clear
10:55 AM 66.2 °F 48.2 °F 52% 30.06 in 10.0 mi NNE 24.2 mph 28.8 mph N/A   Clear
11:15 AM 66.2 °F 48.2 °F 52% 30.07 in 10.0 mi North 20.7 mph 27.6 mph N/A   Clear
11:35 AM 68.0 °F 48.2 °F 49% 30.06 in 10.0 mi North 25.3 mph 31.1 mph N/A   Clear
11:55 AM 69.8 °F 48.2 °F 46% 30.07 in 10.0 mi North 19.6 mph 28.8 mph N/A   Clear
12:15 PM 68.0 °F 48.2 °F 49% 30.07 in 10.0 mi North 20.7 mph 28.8 mph N/A   Clear
12:35 PM 68.0 °F 48.2 °F 49% 30.06 in 10.0 mi NNE 20.7 mph 31.1 mph N/A   Clear
12:55 PM 69.8 °F 48.2 °F 46% 30.06 in 10.0 mi North 23.0 mph 29.9 mph N/A   Clear
1:15 PM 69.8 °F 48.2 °F 46% 30.06 in 10.0 mi NNE 21.9 mph 28.8 mph N/A   Clear
1:35 PM 69.8 °F 48.2 °F 46% 30.05 in 10.0 mi NNE 21.9 mph 27.6 mph N/A   Clear
1:55 PM 69.8 °F 46.4 °F 43% 30.05 in 10.0 mi NNE 24.2 mph 31.1 mph N/A   Clear
2:15 PM 71.6 °F 44.6 °F 38% 30.05 in 10.0 mi NNE 26.5 mph 29.9 mph N/A   Clear
2:35 PM 71.6 °F 44.6 °F 38% 30.04 in 10.0 mi NE 26.5 mph 32.2 mph N/A   Clear
2:55 PM 71.6 °F 42.8 °F 35% 30.04 in 10.0 mi NNE 23.0 mph 26.5 mph N/A   Clear
3:15 PM 71.6 °F 42.8 °F 35% 30.04 in 10.0 mi NNE 20.7 mph 28.8 mph N/A   Clear
3:35 PM 71.6 °F 41.0 °F 33% 30.05 in 10.0 mi NNE 19.6 mph 27.6 mph N/A   Clear
3:55 PM 71.6 °F 39.2 °F 31% 30.05 in 10.0 mi NE 26.5 mph 33.4 mph N/A   Clear
4:15 PM 71.6 °F 37.4 °F 29% 30.06 in 10.0 mi NE 23.0 mph 28.8 mph N/A   Clear
4:35 PM 69.8 °F 37.4 °F 31% 30.07 in 10.0 mi NNE 21.9 mph 32.2 mph N/A   Clear
4:55 PM 68.0 °F 39.2 °F 35% 30.07 in 10.0 mi NE 20.7 mph - N/A   Clear
5:15 PM 66.2 °F 39.2 °F 37% 30.07 in 10.0 mi NNE 21.9 mph 27.6 mph N/A   Clear
5:35 PM 66.2 °F 39.2 °F 37% 30.09 in 10.0 mi NNE 18.4 mph 27.6 mph N/A   Mostly Cloudy
5:55 PM 66.2 °F 37.4 °F 35% 30.10 in 10.0 mi North 20.7 mph 25.3 mph N/A   Overcast
6:15 PM 64.4 °F 41.0 °F 42% 30.11 in 10.0 mi North 18.4 mph - N/A   Overcast
6:35 PM 62.6 °F 39.2 °F 42% 30.12 in 10.0 mi North 18.4 mph 27.6 mph N/A   Mostly Cloudy
6:55 PM 60.8 °F 39.2 °F 45% 30.13 in 10.0 mi North 19.6 mph 24.2 mph N/A   Mostly Cloudy
7:15 PM 60.8 °F 39.2 °F 45% 30.14 in 10.0 mi North 19.6 mph 27.6 mph N/A   Mostly Cloudy
7:35 PM 60.8 °F 39.2 °F 45% 30.16 in 10.0 mi NNE 18.4 mph 24.2 mph N/A   Overcast
7:55 PM 60.8 °F 37.4 °F 42% 30.16 in 10.0 mi North 19.6 mph 28.8 mph N/A   Overcast
8:15 PM 59.0 °F 37.4 °F 45% 30.17 in 10.0 mi North 20.7 mph 28.8 mph N/A   Overcast
8:35 PM 57.2 °F 41.0 °F 55% 30.18 in 10.0 mi North 21.9 mph 28.8 mph N/A   Overcast
8:55 PM 57.2 °F 42.8 °F 59% 30.20 in 10.0 mi North 17.3 mph - N/A   Overcast
9:15 PM 55.4 °F 42.8 °F 63% 30.20 in 10.0 mi NNE 19.6 mph 26.5 mph N/A   Overcast
9:35 PM 53.6 °F 42.8 °F 67% 30.22 in 10.0 mi North 18.4 mph 24.2 mph N/A   Overcast
9:55 PM 53.6 °F 42.8 °F 67% 30.23 in 10.0 mi North 18.4 mph 24.2 mph N/A   Overcast
10:15 PM 53.6 °F 41.0 °F 62% 30.23 in 10.0 mi North 20.7 mph 25.3 mph N/A   Overcast
10:35 PM 51.8 °F 41.0 °F 67% 30.22 in 10.0 mi North 19.6 mph 24.2 mph N/A   Overcast
10:55 PM 51.8 °F 39.2 °F 62% 30.23 in 10.0 mi North 19.6 mph 28.8 mph N/A   Overcast
11:15 PM 51.8 °F 39.2 °F 62% 30.23 in 10.0 mi NNE 21.9 mph - N/A   Overcast
11:35 PM 51.8 °F 39.2 °F 62% 30.23 in 10.0 mi North 19.6 mph 25.3 mph N/A   Overcast
11:55 PM 50.0 °F 41.0 °F 71% 30.23 in 10.0 mi North 18.4 mph - N/A   Overcast